Location: Asheville, NC
(35.6000°N, 82.5500°W)
Time: 17:16:37
(UTC-04:00)

FO-29 - Pass Details

Date: 11 March 2018
Orbit: 799 x 1322 km, 98.5° (Epoch: 17 June)

Event Time Altitude Azimuth Distance (km) Brightness Sun altitude
Rises 22:07:27 0° 4° (N) 3,988 12.9 -31.4°
Reaches altitude 10° 22:10:04 10° 358° (N) 3,092 12.3 -31.9°
Maximum altitude 22:16:43 43° 290° (WNW) 1,703 11.0 -33.2°
Drops below altitude 10° 22:23:52 10° 223° (SW) 3,316 12.4 -34.5°
Sets 22:26:47 0° 217° (SW) 4,304 13.0 -35.0°
